Regional Weather Roundup
Issued by NWS Cleveland, OH

Home | Current Version | Previous Version | Text Only | Print | Product List | Glossary Off
Versions: 1 2 3 4 5 6 7 8 9 10 11 12 13 14 15 16 17 18 19 20 21 22 23 24 25 26 27 28 29 30 31 32 33 34 35 36 37 38 39 40 41 42 43 44 45 46 47 48 49 50

000
ASUS41 KCLE 300502
RWRCLE
OHIO REGIONAL WEATHER ROUNDUP
NATIONAL WEATHER SERVICE CLEVELAND, OH
100 AM EDT THU JUL 30 2015

NOTE: "FAIR" INDICATES FEW OR NO CLOUDS BELOW 12,000 FEET WITH NO
SIGNIFICANT WEATHER AND/OR OBSTRUCTIONS TO VISIBILITY.

OHZ001>008-015>018-024>027-034-035-043-044-300600-
   NORTHWEST OHIO

CITY           SKY/WX    TMP DP  RH WIND       PRES   REMARKS
DEFIANCE       CLEAR     68  59  73 W3        29.99R
FINDLAY        PTCLDY    70  61  73 NW7       29.98R
TOLEDO EXPRESS CLEAR     66  63  90 W6        29.97R
TOLEDO EXEC    CLEAR     70  61  73 SW5       29.97S
LIMA           PTCLDY    70  59  68 NW7       30.00R
$$

OHZ009>014-019>023-028>033-038-089-300600-
   NORTHEAST OHIO

CITY           SKY/WX    TMP DP  RH WIND       PRES   REMARKS
CLE-HOPKINS    CLOUDY    75  72  90 W8        29.96R
CLE-LAKEFRONT  CLOUDY    78  73  84 W13       29.91R
CUY CO. ARPT   NOT AVBL
LORAIN-ELYRIA  MOCLDY    74  71  91 NW9       29.96R
ASHTABULA      CLOUDY    77  72  84 W5        29.92S
AKRON-CANTON   CLOUDY    77  72  84 W7        29.96R
WOOSTER        CLOUDY    74  72  93 W6        29.97R
MANSFIELD      MOCLDY    75  71  87 W8        29.98R
YOUNGSTOWN     CLOUDY    75  70  84 CALM      29.94R
$$

OHZ042-051>053-060>062-070>072-077>081-300600-
  SOUTHWEST OHIO

CITY           SKY/WX    TMP DP  RH WIND       PRES   REMARKS
CINC-COVINGTON CLOUDY    75  73  93 W6        30.00F
CINC-LUNKEN    CLOUDY    76  73  91 SW5       29.99S
HAMILTON       CLOUDY    76  73  91 W5        30.00S
DAYTON         CLOUDY    77  74  90 NW8       30.01R
WRIGHT-PAT AFB MOCLDY    76  76  98 W3        29.98S
DAYTON GENERAL CLOUDY    76  74  93 W5        29.99R FOG
WILMINGTON     CLOUDY    75  72  90 W7        29.99S
$$

OHZ036-037-039>041-045>050-054>059-063>069-073>076-082>088-300600-
  CENTRAL AND SOUTHEAST OHIO

CITY           SKY/WX    TMP DP  RH WIND       PRES   REMARKS
COLUMBUS       MOCLDY    76  73  91 CALM      29.96S
OSU AIRPORT    MOCLDY    75  73  93 W8        29.97R
BOLTON FIELD   NOT AVBL
RICKENBACK AFB MOCLDY    73  72  97 CALM      29.96S FOG
NEWARK         CLOUDY    73  71  93 CALM      29.96S
MARION         PTCLDY    75  70  84 NW8       29.99R
LANCASTER      MOCLDY    73  71  93 CALM      29.98R FOG
ZANESVILLE     CLOUDY    74  70  87 SW5       29.96R
NEW PHILLY     CLOUDY    76  72  87 CALM      29.95R
$$


USA.gov is the U.S. government's official web portal to all federal, state and local government web resources and services.